Scottsbluff, NE

5:08 AM MDT on October 14, 2019 (GMT -0600)
Heilig

Weather History for KBFF - August, 2019

Change the Weather History Date:

Sunday, August 25, 2019

  Actual Average Record
Temperature  
Mean Temperature 77 °F -  
Max Temperature 93 °F 87 °F 101 °F (1991)
Min Temperature 61 °F 54 °F 30 °F (1910)
Cooling Degree Days 12    
Growing Degree Days 27 (Base 50)    
Moisture  
Dew Point 60 °F    
Average Humidity 76    
Maximum Humidity 100    
Minimum Humidity 11    
Precipitation  
Precipitation 0.00 in - - ()
Sea Level Pressure  
Sea Level Pressure 29.74 in    
Wind  
Wind Speed 7 mph (ESE)    
Max Wind Speed 30 mph    
Max Gust Speed 41 mph    
Visibility 6 miles    
Events Fog    
Averages and records for this station are not official NWS values.
T = Trace of Precipitation, MM = Missing Value Source: NWS Daily Summary

Daily Weather History Graph

Daily Weather History Graph

Search for Another Location

Airport or City:

Astronomy

Aug. 25, 2019 Rise Set
Actual Time 6:12 AM MDT 7:39 PM MDT
Civil Twilight 5:43 AM MDT 8:08 PM MDT
Nautical Twilight 5:08 AM MDT 8:43 PM MDT
Astronomical Twilight 4:31 AM MDT 9:20 PM MDT
Moon 12:46 AM MDT (8/25) 4:06 PM MDT (8/25)
Length of Visible Light 14h 25m
Length of Day
13h 26m
Waning Crescent, 28% of the Moon is Illuminated
Aug 25
Waning Crescent
Aug 30
New
Sep 5
First Quarter
Sep 13
Full
Sep 21
Last Quarter

Hourly Weather History & Observations

Time (MDT) Temp. Heat Index Dew Point Humidity Pressure Visibility Wind Dir Wind Speed Gust Speed Precip Events Conditions
12:53 AM 64.9 °F - 62.1 °F 90% 29.78 in 8.0 mi ESE 8.1 mph - N/A   Clear
1:53 AM 62.1 °F - 61.0 °F 96% 29.76 in 9.0 mi East 5.8 mph - N/A   Clear
2:53 AM 62.1 °F - 60.1 °F 93% 29.74 in 8.0 mi ESE 6.9 mph - N/A   Clear
3:53 AM 61.0 °F - 60.1 °F 97% 29.73 in 7.0 mi East 8.1 mph - N/A   Clear
4:21 AM 61.0 °F - 60.1 °F 97% 29.85 in 4.0 mi East 11.5 mph - N/A   Scattered Clouds
4:24 AM 61.0 °F - 60.1 °F 97% 29.85 in 2.0 mi ESE 10.4 mph - N/A   Mostly Cloudy
4:27 AM 61.0 °F - 61.0 °F 100% 29.85 in 1.0 mi ESE 11.5 mph - N/A   Mist
4:30 AM 61.0 °F - 61.0 °F 100% 29.85 in 0.8 mi East 10.4 mph - N/A   Mist
4:53 AM 61.0 °F - 61.0 °F 100% 29.72 in 0.2 mi ESE 10.4 mph - N/A Fog Fog
5:05 AM 61.0 °F - 61.0 °F 100% 29.85 in 0.5 mi ESE 12.7 mph - N/A Fog Fog
5:29 AM 62.1 °F - 62.1 °F 100% 29.85 in 0.2 mi ESE 11.5 mph - N/A Fog Fog
5:37 AM 62.1 °F - 62.1 °F 100% 29.86 in 0.2 mi ESE 9.2 mph - N/A Fog Fog
5:53 AM 62.1 °F - 62.1 °F 100% 29.72 in 0.5 mi ESE 9.2 mph - N/A Fog Fog
6:28 AM 62.1 °F - 62.1 °F 100% 29.86 in 0.2 mi ESE 4.6 mph - N/A Fog Fog
6:53 AM 61.0 °F - 61.0 °F 100% 29.75 in 0.2 mi SE 4.6 mph - N/A Fog Fog
7:53 AM 61.0 °F - 61.0 °F 100% 29.77 in 0.2 mi NE 3.5 mph - N/A Fog Fog
7:59 AM 62.1 °F - 61.0 °F 96% 29.89 in 1.0 mi NNE 3.5 mph - N/A   Overcast
8:13 AM 61.0 °F - 61.0 °F 100% 29.89 in 3.0 mi ENE 4.6 mph - N/A   Overcast
8:50 AM 64.4 °F - 60.8 °F 88% 29.89 in 9.0 mi Calm Calm - N/A   Mostly Cloudy
8:53 AM 64.0 °F - 61.0 °F 90% 29.78 in 10.0 mi Calm Calm - N/A   Mostly Cloudy
9:17 AM 66.0 °F - 61.0 °F 84% 29.89 in 10.0 mi Calm Calm - N/A   Partly Cloudy
9:53 AM 68.0 °F - 61.0 °F 78% 29.77 in 10.0 mi Calm Calm - N/A   Clear
10:53 AM 75.9 °F - 62.1 °F 62% 29.75 in 10.0 mi NNE 4.6 mph - N/A   Clear
11:53 AM 81.0 °F 81.1 °F 57.9 °F 45% 29.73 in 10.0 mi Calm Calm - N/A   Clear
12:53 PM 86.0 °F 85.4 °F 59.0 °F 40% 29.69 in 10.0 mi Variable 4.6 mph - N/A   Clear
1:53 PM 89.1 °F 87.1 °F 55.0 °F 31% 29.67 in 10.0 mi Variable 3.5 mph - N/A   Clear
2:53 PM 91.0 °F - 50.0 °F 24% 29.65 in 10.0 mi Variable 3.5 mph - N/A   Clear
3:53 PM 91.9 °F - 50.0 °F 24% 29.63 in 10.0 mi West 4.6 mph - N/A   Clear
4:53 PM 91.0 °F - 51.1 °F 25% 29.61 in 10.0 mi Calm Calm - N/A   Clear
5:53 PM 91.9 °F - 45.0 °F 20% 29.60 in 10.0 mi Calm Calm - N/A   Clear
6:53 PM 82.9 °F 83.3 °F 61.0 °F 47% 29.60 in 10.0 mi SSW 5.8 mph - N/A   Clear
7:53 PM 77.0 °F - 64.9 °F 66% 29.62 in 10.0 mi ESE 9.2 mph - N/A   Clear
8:53 PM 72.0 °F - 66.0 °F 81% 29.64 in 10.0 mi ESE 9.2 mph - N/A   Clear
9:53 PM 70.0 °F - 66.0 °F 87% 29.64 in 10.0 mi ESE 10.4 mph - N/A   Clear
10:53 PM 68.0 °F - 66.0 °F 93% 29.60 in 10.0 mi ESE 8.1 mph - N/A   Clear
11:53 PM 66.9 °F - 59.0 °F 76% 29.65 in 10.0 mi NNE 29.9 mph 41.4 mph N/A   Clear